Flag for Czech Republic Weather past 2 weeks in Ostrava, Czech Republic

Now
68 °F

Fog.


Feels Like: 68 °F
Forecast: 65 / 78 °F
Wind: 2 mph from East

Location: Ostrava / Mosnov

Current Time: Jul 31, 2014 at 6:36:23 AM

Latest Report: Jul 31, 2014 at 6:00 AM


Visibility: 6 mi

Pressure: 29.81 "Hg

Humidity: 92%

Dew point: 65 °F

Location of OstravaLocation

Historic Weather in Ostrava — Graph

°F

Ostrava temperature yesterday

Maximum temperature yesterday: 83 °F (at 3:00 PM)
Minimum temperature yesterday: 61 °F (at 5:00 AM)
Average temperature yesterday: 72 °F

Past Weeks' High & Low Weather Summary

 TemperatureHumidityPressure
High88 °F (Jul 20, 4:00 PM)99% (Jul 29, 5:00 AM)30.16 "Hg (Jul 29, 5:00 AM)
Low57 °F (Jul 26, 6:00 AM)35% (Jul 19, 3:00 PM)29.73 "Hg (Jul 21, 11:00 AM)
Average71 °F73%29.92 "Hg
* Reported Jul 16 5:00 AM — Jul 31 5:00 AM, Ostrava, Weather by CustomWeather, © 2014

Note: Actual official high and low records may vary slightly from our data, if they occured in-between our weather recording intervals... More about our weather records

Advertising

Ostrava weather history for previous 24 hours

 ConditionsComfort  
Time TempWeatherWind HumidityBarometerVisibility
5:00 AM
Jul 31
66 °FFog.2 mph96%29.80 "Hg5 mi
4:00 AM66 °FFog.N/A93%29.80 "Hg5 mi
3:00 AM66 °FFog.3 mph96%29.80 "Hg5 mi
2:00 AM67 °FFog.N/A93%29.78 "Hg5 mi
1:00 AM68 °FOvercast.N/A92%29.78 "Hg6 mi
12:00 AM67 °FPassing clouds.N/A92%29.78 "Hg6 mi
11:00 PM
Jul 30
69 °FPassing clouds.N/A88%29.78 "Hg9 mi
10:00 PM71 °FPassing clouds.2 mph81%29.77 "Hg9 mi
9:00 PM73 °FPassing clouds.1 mph76%29.75 "Hg9 mi
8:00 PM74 °FPartly sunny.2 mph70%29.75 "Hg9 mi
7:00 PM76 °FOvercast.1 mph67%29.74 "Hg9 mi
6:00 PM77 °FOvercast.2 mph63%29.74 "Hg9 mi
5:00 PM78 °FPartly sunny.5 mph57%29.75 "Hg9 mi
4:00 PM80 °FPartly sunny.6 mph52%29.75 "Hg9 mi
3:00 PM83 °FScattered clouds.5 mph49%29.74 "Hg11 mi
2:00 PM82 °FScattered clouds.6 mph53%29.75 "Hg16 mi
1:00 PM81 °FScattered clouds.5 mph55%29.76 "Hg16 mi
12:00 PM79 °FPartly sunny.6 mph58%29.76 "Hg19 mi
11:00 AM78 °FPartly sunny.7 mph58%29.76 "Hg16 mi
10:00 AM77 °FPartly sunny.N/A63%29.76 "Hg16 mi
9:00 AM74 °FPassing clouds.N/A68%29.76 "Hg12 mi
8:00 AM70 °FPassing clouds.N/A79%29.77 "Hg8 mi
7:00 AM66 °FPassing clouds.N/A88%29.77 "Hg6 mi
6:00 AM64 °FFog.1 mph93%29.77 "Hg4 mi
Weather by CustomWeather, © 2014

See weather overviewHow to use our weather pages